[[{"header":{"parameterUnit":"m.s-1","parameterCategory":1,"la1":30.2991,"la2":30.254,"lo1":-89.0895,"lo2":-89.0444,"dy":0.0017,"dx":0.0017,"nx":28,"ny":28,"refTime":"2025-02-01T03:00:00:Z","depth":0,"parameterNumber":2,"parameterNumberName":"U-component_of_WINDS"},"data":[0,0,0,0,0,0,0,0,0,0,0,0,0,0,0,0,0,0,0,0,0,0,0,0,0,0,0,0,0,0,0,0,0,0,0,0,0,0,0,0,0,0,0,0,0,0,0,0,0,0,0,0,0,0,0,0,0,0,1.9674,1.9674,0,1.9721,1.9722,1.9722,1.9696,1.9695,1.9693,1.9692,1.9742,1.9744,1.9747,0,0,0,0,0,0,0,0,0,0,0,0,0,1.9562,1.9564,1.9674,1.9674,1.9675,1.9721,1.9722,1.9722,1.9696,1.9695,1.9693,1.9692,1.9741,1.9744,1.9747,0,0,0,0,0,0,0,0,0,0,0,0,0,1.961,1.9565,1.9674,1.9667,1.9667,1.9721,1.9722,1.9723,1.9697,1.9695,1.9693,1.9691,1.974,1.9744,1.9747,1.981,0,0,1.9759,1.9761,0,0,0,0,0,0,0,0,1.9608,1.9614,1.9668,1.9668,1.9668,1.9701,1.9701,1.9752,1.9697,1.9686,1.9692,1.969,1.973,1.9734,1.9747,1.9812,1.9814,1.9759,1.9762,1.9763,1.9764,0,0,0,0,0,0,0,1.9604,1.9612,1.9692,1.9669,1.9669,1.9663,1.9668,1.971,1.9718,1.9686,1.9685,1.9691,1.9729,1.9744,1.9748,1.9815,1.9759,1.9763,1.9765,1.9766,1.9936,1.9938,0,0,0,0,0,0,1.9601,1.961,1.9691,1.9694,1.9632,1.9667,1.9672,1.9692,1.9718,1.9719,1.9692,1.9689,1.9738,1.9744,1.975,1.9827,1.9763,1.9767,1.9769,1.9934,1.9937,1.9939,0,0,0,0,0,0,1.9599,1.9609,1.9689,1.9651,1.9661,1.967,1.9694,1.9694,1.9709,1.9722,1.9723,1.9705,1.9737,1.9745,1.9796,1.9828,1.9769,1.9772,1.9931,1.9935,1.9938,1.9979,0,0,0,0,0,0,1.9596,1.9608,1.9631,1.9652,1.9663,1.9733,1.9696,1.9696,1.9715,1.9712,1.9735,1.9737,1.9736,1.979,1.98,1.9832,1.9775,1.9928,1.9933,1.9937,1.9975,1.9984,1.9991,0,0,0,0,0,1.9592,1.9641,1.9633,1.9643,1.9693,1.9735,1.9742,1.974,1.9718,1.9742,1.9751,1.9736,1.9823,1.9796,1.9806,1.984,1.9926,1.9932,1.9936,1.9972,1.9982,1.9991,0,0,0,0,0,0,1.9624,1.9643,1.9635,1.9691,1.9712,1.9731,1.9761,1.9751,1.9778,1.9774,1.977,1.9776,1.9829,1.984,1.9809,1.9903,1.9871,1.9879,1.9894,1.9904,1.9912,1.9909,1.9778,0,0,0,0,0,1.9637,1.967,1.9685,1.9734,1.9745,1.9751,1.977,1.9767,1.9788,1.9797,1.9809,1.983,1.9863,1.9884,1.9914,1.9976,1.9982,2.0005,2.0013,2.0019,2.0026,2.0061,2.0072,1.9955,1.9955,1.9955,0,0,1.9666,1.9681,1.9701,1.9741,1.9757,1.9791,1.9759,1.9796,1.9823,1.9802,1.9852,1.9862,1.9886,1.9943,1.9969,1.9953,2.006,2.0026,2.0031,2.0034,2.0068,2.0079,2.0089,1.9959,1.9958,1.9958,0,0,1.9736,1.975,1.9793,1.9809,1.9833,1.9837,1.9848,1.9868,1.9874,1.9924,1.991,1.9941,1.9996,2.0014,2.0031,2.0109,2.0098,2.0119,2.0161,2.0196,2.0205,2.0213,2.0242,2.0253,2.0126,2.0126,2.0126,0,1.9768,1.9819,1.9816,1.9855,1.9874,1.9858,1.9902,1.9918,1.9951,1.9964,1.9946,2.0017,2.0031,2.0094,2.0113,2.0126,2.0139,2.0117,2.0204,2.0212,2.0219,2.0247,2.0258,2.0128,2.0128,2.0128,2.0128,0,1.9859,1.9895,1.9927,1.9959,1.9981,2.0023,2.0027,2.005,2.0045,2.0052,2.0103,2.012,2.0155,2.0169,2.0165,2.0232,2.0221,2.0204,2.0172,2.0233,2.026,2.027,2.0132,2.0131,2.013,2.013,0,0,1.995,1.9981,1.9993,2.0008,2.0034,2.0062,2.0103,2.0137,2.0157,2.0181,2.0217,2.0264,2.0249,2.0267,2.0265,2.0295,2.0359,2.0274,2.0275,2.029,2.0435,2.0449,2.0461,2.0351,2.0353,2.0354,2.0433,0,2.0022,2.0094,2.0093,2.0161,2.0195,2.018,2.0217,2.0237,2.0245,2.0275,2.0283,2.0318,2.0294,2.0305,2.0334,2.0345,2.0388,2.0339,2.0385,2.0386,2.038,2.0475,2.0489,2.0563,2.0444,2.0445,2.0447,0,2.0116,2.0143,2.0214,2.0237,2.0251,2.0284,2.0315,2.0344,2.0368,2.0371,2.0393,2.0386,2.043,2.0396,2.0457,2.0424,2.0443,2.0451,2.0453,2.0458,2.0421,2.0483,2.0586,2.0598,2.0462,2.0461,2.046,0,2.0177,2.0231,2.0281,2.0294,2.0321,2.0345,2.0358,2.0379,2.04,2.0428,2.0442,2.0474,2.0492,2.0518,2.0521,2.0496,2.0583,2.0549,2.0588,2.0588,2.0607,2.0606,2.0716,2.0618,2.0617,2.0617,2.0617,0,2.0259,2.0303,2.0309,2.034,2.0389,2.0388,2.0438,2.0448,2.0468,2.0501,2.049,2.0522,2.0523,2.0556,2.0559,2.061,2.0617,2.0622,2.0623,2.0624,2.0623,2.0637,2.0632,2.062,2.0619,2.0619,2.0618,0,2.0335,2.0341,2.0394,2.0416,2.0423,2.0458,2.0477,2.0507,2.0514,2.0556,2.0566,2.0577,2.0615,2.0621,2.0665,2.0667,2.0728,2.0723,2.0721,2.072,2.0759,2.0756,2.0882,2.0899,2.0789,2.079,2.0791,0,2.0387,2.0421,2.0447,2.0468,2.0482,2.0517,2.0538,2.0539,2.0562,2.0592,2.0619,2.0656,2.0686,2.0748,2.076,2.0795,2.079,2.0832,2.0796,2.0796,2.0793,2.0791,2.0795,2.084,2.0841,2.0842,2.0843,0,2.048,2.0482,2.0513,2.0546,2.0572,2.0597,2.0622,2.064,2.0644,2.0671,2.071,2.0733,2.0779,2.0816,2.0851,2.0864,2.0855,2.0854,2.0865,2.0867,2.0865,2.0868,2.0741,2.0851,2.085,2.085,2.0849,2.0849,2.0547,2.0577,2.06,2.0636,2.0654,2.0678,2.0707,2.0718,2.075,2.0788,2.0786,2.083,2.0854,2.0899,2.0915,2.095,2.0936,2.0952,2.0956,2.096,2.0965,2.0859,2.0956,2.0956,2.0956,2.0955,2.0955,0,2.064,2.0655,2.0687,2.0722,2.0751,2.0739,2.0765,2.079,2.0828,2.0852,2.0881,2.0927,2.0964,2.098,2.1016,2.1041,2.1037,2.105,2.1049,2.1053,2.0974,2.0962,2.1053,2.1053,2.1053,2.1053,2.1053,2.1052,2.0692,2.0743,2.0747,2.0808,2.0822,2.0864,2.0881,2.0903,2.0921,2.0973,2.1003,2.1013,2.1034,2.1072,2.1106,2.1109,2.1124,2.1139,2.1141,2.1068,2.1058,2.1049,2.1037,2.1142,2.1142,2.1217,2.1218,2.1218]},{"header":{"parameterUnit":"m.s-1","parameterCategory":1,"la1":30.2991,"la2":30.254,"lo1":-89.0895,"lo2":-89.0444,"dy":0.0017,"dx":0.0017,"nx":28,"ny":28,"refTime":"2025-02-01T03:00:00:Z","depth":0,"parameterNumber":3,"parameterNumberName":"V-component_of_WINDS"},"data":[0,0,0,0,0,0,0,0,0,0,0,0,0,0,0,0,0,0,0,0,0,0,0,0,0,0,0,0,0,0,0,0,0,0,0,0,0,0,0,0,0,0,0,0,0,0,0,0,0,0,0,0,0,0,0,0,0,0,-1.5616,-1.5616,0,-1.5644,-1.5644,-1.5644,-1.5645,-1.5645,-1.5644,-1.5644,-1.5673,-1.5674,-1.5675,0,0,0,0,0,0,0,0,0,0,0,0,0,-1.5565,-1.5566,-1.5616,-1.5616,-1.5617,-1.5644,-1.5644,-1.5644,-1.5645,-1.5645,-1.5644,-1.5644,-1.5673,-1.5674,-1.5676,0,0,0,0,0,0,0,0,0,0,0,0,0,-1.5589,-1.5566,-1.5616,-1.562,-1.5621,-1.5644,-1.5644,-1.5645,-1.5645,-1.5645,-1.5644,-1.5644,-1.5673,-1.5674,-1.5676,-1.5696,0,0,-1.5681,-1.5681,0,0,0,0,0,0,0,0,-1.5588,-1.5591,-1.5619,-1.562,-1.5621,-1.564,-1.5637,-1.5662,-1.5645,-1.5636,-1.5644,-1.5644,-1.5663,-1.5665,-1.5672,-1.5698,-1.5699,-1.5681,-1.5682,-1.5683,-1.5683,0,0,0,0,0,0,0,-1.5586,-1.559,-1.5627,-1.562,-1.5621,-1.5621,-1.5624,-1.5642,-1.5652,-1.5637,-1.5637,-1.564,-1.5663,-1.567,-1.5672,-1.5699,-1.5681,-1.5682,-1.5683,-1.5684,-1.5745,-1.5746,0,0,0,0,0,0,-1.5584,-1.5589,-1.5626,-1.5628,-1.5603,-1.5623,-1.5626,-1.5635,-1.5652,-1.5654,-1.5641,-1.564,-1.5667,-1.567,-1.5673,-1.5699,-1.5683,-1.5684,-1.5685,-1.5744,-1.5745,-1.5746,0,0,0,0,0,0,-1.5582,-1.5587,-1.5625,-1.5608,-1.5613,-1.5624,-1.5634,-1.5635,-1.5642,-1.5655,-1.5657,-1.5646,-1.5667,-1.5671,-1.5691,-1.57,-1.5685,-1.5686,-1.5744,-1.5745,-1.5746,-1.5751,0,0,0,0,0,0,-1.5581,-1.5586,-1.5594,-1.5608,-1.5614,-1.5641,-1.5634,-1.5636,-1.5645,-1.5645,-1.566,-1.5662,-1.5667,-1.5688,-1.5692,-1.5702,-1.5688,-1.5743,-1.5744,-1.5745,-1.575,-1.5752,-1.5754,0,0,0,0,0,-1.5579,-1.5594,-1.5594,-1.5599,-1.5623,-1.5642,-1.5645,-1.5651,-1.5646,-1.5654,-1.5662,-1.5661,-1.5699,-1.569,-1.5695,-1.5705,-1.5742,-1.5744,-1.5745,-1.5749,-1.5751,-1.5753,0,0,0,0,0,0,-1.558,-1.5596,-1.5596,-1.5616,-1.5628,-1.5642,-1.5652,-1.5653,-1.5666,-1.5665,-1.5672,-1.5675,-1.5695,-1.5702,-1.5693,-1.5727,-1.572,-1.5722,-1.5721,-1.5724,-1.5726,-1.5723,-1.5689,0,0,0,0,0,-1.5583,-1.5596,-1.5609,-1.5626,-1.5631,-1.5641,-1.5649,-1.5652,-1.5665,-1.5669,-1.5679,-1.5691,-1.5706,-1.5715,-1.5729,-1.5751,-1.5755,-1.5761,-1.5763,-1.5764,-1.5766,-1.5779,-1.5782,-1.5751,-1.5751,-1.5751,0,0,-1.5588,-1.5598,-1.5606,-1.5626,-1.5635,-1.565,-1.5645,-1.566,-1.5671,-1.5672,-1.5691,-1.5699,-1.5713,-1.5734,-1.5744,-1.5741,-1.5776,-1.5766,-1.5767,-1.5768,-1.5781,-1.5784,-1.5787,-1.5752,-1.5751,-1.5751,0,0,-1.5605,-1.5614,-1.5629,-1.5639,-1.5653,-1.5659,-1.5663,-1.5678,-1.5683,-1.5702,-1.5704,-1.5717,-1.5742,-1.5752,-1.5761,-1.5784,-1.5784,-1.5788,-1.5798,-1.5811,-1.5813,-1.5815,-1.5824,-1.5827,-1.579,-1.579,-1.579,0,-1.561,-1.5631,-1.5637,-1.5652,-1.5661,-1.5663,-1.5679,-1.5688,-1.5707,-1.5713,-1.5709,-1.5741,-1.5751,-1.5775,-1.5781,-1.5788,-1.5793,-1.5786,-1.5812,-1.5815,-1.5817,-1.5825,-1.5829,-1.5791,-1.579,-1.579,-1.579,0,-1.5637,-1.5652,-1.5662,-1.568,-1.569,-1.5706,-1.5715,-1.5725,-1.5727,-1.5734,-1.5755,-1.5767,-1.5784,-1.579,-1.5793,-1.5815,-1.5813,-1.5811,-1.5804,-1.582,-1.5829,-1.5832,-1.5791,-1.5791,-1.5791,-1.5791,0,0,-1.5655,-1.5676,-1.568,-1.5688,-1.5705,-1.5717,-1.5733,-1.575,-1.5759,-1.5771,-1.5786,-1.5807,-1.5806,-1.5816,-1.582,-1.5831,-1.585,-1.5828,-1.5828,-1.5832,-1.5876,-1.5878,-1.5882,-1.585,-1.5851,-1.5851,-1.5876,0,-1.5674,-1.5702,-1.5708,-1.5733,-1.5747,-1.575,-1.5765,-1.5777,-1.5784,-1.5798,-1.5806,-1.5822,-1.5818,-1.5824,-1.5836,-1.5845,-1.5859,-1.5843,-1.5864,-1.5865,-1.5861,-1.5886,-1.5888,-1.591,-1.5879,-1.5879,-1.588,0,-1.57,-1.5713,-1.5739,-1.5755,-1.5762,-1.5774,-1.5791,-1.5804,-1.5818,-1.5823,-1.5834,-1.5838,-1.5856,-1.5848,-1.5874,-1.5863,-1.5873,-1.5879,-1.588,-1.5882,-1.5873,-1.589,-1.5917,-1.592,-1.5885,-1.5884,-1.5884,0,-1.5711,-1.5736,-1.5755,-1.5762,-1.5781,-1.579,-1.5798,-1.5812,-1.5822,-1.5837,-1.5844,-1.586,-1.587,-1.5883,-1.5891,-1.5885,-1.5917,-1.591,-1.5922,-1.5922,-1.5928,-1.5928,-1.5958,-1.5934,-1.5934,-1.5934,-1.5934,0,-1.5731,-1.5747,-1.576,-1.5772,-1.579,-1.5798,-1.5816,-1.5825,-1.5838,-1.5852,-1.5855,-1.5869,-1.5879,-1.5894,-1.5901,-1.5922,-1.5926,-1.5931,-1.5932,-1.593,-1.593,-1.5937,-1.5935,-1.5935,-1.5934,-1.5934,-1.5934,0,-1.5747,-1.5756,-1.5777,-1.5793,-1.5798,-1.5811,-1.5825,-1.5837,-1.5845,-1.5863,-1.5868,-1.5881,-1.5899,-1.5909,-1.5931,-1.5936,-1.596,-1.596,-1.5955,-1.5955,-1.5967,-1.5966,-1.6003,-1.6009,-1.598,-1.5981,-1.5981,0,-1.5759,-1.5772,-1.579,-1.5799,-1.5808,-1.5823,-1.5834,-1.5842,-1.5853,-1.5872,-1.5882,-1.59,-1.5915,-1.5945,-1.5956,-1.5974,-1.5976,-1.5987,-1.5978,-1.5977,-1.5977,-1.5976,-1.5978,-1.5989,-1.5989,-1.5989,-1.599,0,-1.5781,-1.5785,-1.58,-1.5817,-1.5829,-1.5843,-1.5857,-1.5865,-1.5876,-1.5888,-1.5907,-1.5918,-1.5942,-1.5961,-1.598,-1.5989,-1.5992,-1.5993,-1.5996,-1.5995,-1.5991,-1.5994,-1.5959,-1.5992,-1.5991,-1.5991,-1.5991,-1.5991,-1.5796,-1.5808,-1.5822,-1.5839,-1.585,-1.5863,-1.5876,-1.5886,-1.5901,-1.5921,-1.5925,-1.5945,-1.5961,-1.5987,-1.5997,-1.6014,-1.6012,-1.6017,-1.6018,-1.602,-1.6021,-1.5989,-1.6017,-1.6017,-1.6017,-1.6017,-1.6017,0,-1.5819,-1.5829,-1.5844,-1.5863,-1.5876,-1.5877,-1.5893,-1.5905,-1.5922,-1.5936,-1.5951,-1.5974,-1.5992,-1.6006,-1.6025,-1.6036,-1.6038,-1.6041,-1.604,-1.6043,-1.6021,-1.6016,-1.6039,-1.6039,-1.6039,-1.6039,-1.6039,-1.6039,-1.5832,-1.5852,-1.5858,-1.5885,-1.5895,-1.5914,-1.5923,-1.5935,-1.5947,-1.5972,-1.5987,-1.5996,-1.601,-1.6031,-1.6049,-1.6052,-1.606,-1.6063,-1.6067,-1.6046,-1.6044,-1.6042,-1.6037,-1.6064,-1.6064,-1.6087,-1.6087,-1.6087]}]]